Weather History for CWGB - August, 2013

Change the Weather History Date:

Friday, August 23, 2013

  Actual Average Record
Temperature  
Mean Temperature 65 °F -  
Max Temperature 69 °F - - ()
Min Temperature 61 °F - - ()
Growing Degree Days 15 (Base 50)    
Moisture  
Dew Point 58 °F    
Average Humidity 81    
Maximum Humidity 89    
Minimum Humidity 61    
Precipitation  
Precipitation 0.01 in - - ()
Sea Level Pressure  
Sea Level Pressure 29.79 in    
Wind  
Wind Speed 10 mph ()    
Max Wind Speed 25 mph    
Max Gust Speed -    
T = Trace of Precipitation, MM = Missing Value Source: Averaged Metar Reports

Daily Weather History Graph

Daily Weather History Graph

Search for Another Location

Airport or City:

Trip Planner

Search our weather history database for the weather conditions in past years. The results will help you decide how hot, cold, wet, or windy it might be!

Date:

Astronomy

Aug. 23, 2013 Rise Set
Actual Time 6:20 AM PDT 8:17 PM PDT
Civil Twilight 5:45 AM PDT 8:51 PM PDT
Nautical Twilight 5:03 AM PDT 9:33 PM PDT
Astronomical Twilight 4:16 AM PDT 10:20 PM PDT
Moon 9:14 PM PDT (8/23) 9:44 AM PDT (8/23)
Length of Visible Light 15h 05m
Length of Day
13h 56m
Waning Gibbous, 91% of the Moon is Illuminated
Aug 23
Waning Gibbous
Aug 28
Last Quarter
Sep 5
New
Sep 12
First Quarter
Sep 19
Full

Hourly Weather History & Observations

Time (PDT) Temp. Dew Point Humidity Pressure Visibility Wind Dir Wind Speed Gust Speed Precip Events Conditions
12:00 AM 69.1 °F 55.0 °F 61% 29.75 in - SE 10.4 mph - N/A   Unknown
1:00 AM 66.9 °F 57.9 °F 73% 29.76 in - SE 2.3 mph - N/A   Unknown
2:00 AM 66.7 °F 61.0 °F 82% 29.76 in - East 6.9 mph - N/A   Unknown
3:00 AM 65.5 °F 58.6 °F 79% 29.77 in - SE 6.9 mph - N/A   Unknown
4:00 AM 64.2 °F 57.0 °F 77% 29.77 in - SE 3.5 mph - N/A   Unknown
5:00 AM 64 °F 56 °F 67% 29.77 in - SE 5.8 mph - -  
5:00 AM 64.2 °F 55.6 °F 73% 29.77 in - SE 5.8 mph - N/A   Unknown
6:00 AM 65.1 °F 56.1 °F 73% 29.76 in - ESE 8.1 mph - N/A   Unknown
7:00 AM 63.0 °F 55.9 °F 78% 29.77 in - ESE 10.4 mph - N/A   Unknown
8:00 AM 62.2 °F 57.4 °F 84% 29.77 in - ESE 12.7 mph - N/A   Unknown
9:00 AM 61.9 °F 56.8 °F 84% 29.78 in - ESE 17.3 mph - N/A   Unknown
10:00 AM 62.8 °F 57.7 °F 84% 29.78 in - ESE 19.6 mph - N/A   Unknown
11:00 AM 62 °F 58 °F 81% 29.79 in - ESE 23.0 mph - -  
11:00 AM 62.4 °F 57.6 °F 84% 29.79 in - ESE 23.0 mph - N/A   Unknown
12:00 PM 63.1 °F 59.0 °F 86% 29.79 in - ESE 25.3 mph - N/A   Unknown
1:00 PM 63.5 °F 58.6 °F 84% 29.80 in - ESE 23.0 mph - N/A   Unknown
2:00 PM 64.4 °F 59.2 °F 83% 29.80 in - ESE 19.6 mph - N/A   Unknown
3:00 PM 64.2 °F 58.5 °F 82% 29.81 in - ESE 17.3 mph - N/A   Unknown
4:00 PM 63.9 °F 58.3 °F 82% 29.81 in - ESE 16.1 mph - N/A   Unknown
5:00 PM 63.5 °F 58.8 °F 85% 29.80 in - ESE 12.7 mph - N/A   Unknown
6:00 PM 63.9 °F 59.4 °F 85% 29.79 in - ESE 12.7 mph - N/A   Unknown
7:00 PM 63.1 °F 59.2 °F 87% 29.79 in - ESE 12.7 mph - N/A   Unknown
8:00 PM 64.2 °F 58.6 °F 82% 29.80 in - ESE 5.8 mph - N/A   Unknown
9:00 PM 63.5 °F 58.1 °F 83% 29.82 in - SE 9.2 mph - 0.01 in   Unknown
10:00 PM 62.8 °F 57.9 °F 84% 29.83 in - SE 10.4 mph - N/A   Unknown
11:00 PM 62 °F 59 °F 86% 29.82 in - ESE 17.3 mph - -  
11:00 PM 62.1 °F 58.8 °F 89% 29.82 in - ESE 17.3 mph - N/A   Unknown